• In Uzbekistan
  • List of Countries
  • For 7 days
  • Water Temperature
  • Satellite Maps
  • Weather Map
  • Weather Widgets
  • user-avatar
    Login

    Hourly Weather Megri

    Today, 9 December, Friday

    Time Temperature Precipitation Wind Pressure Humidity
    00:00 -14°C° 0 mm 1 mps 620 mmHg 72%
    01:00 -14°C° 0 mm 1 mps 620 mmHg 71%
    02:00 -14°C° 0 mm 1 mps 620 mmHg 70%
    03:00 -15°C° 0 mm 1 mps 619 mmHg 70%
    04:00 -14°C° 0 mm 1 mps 619 mmHg 69%
    05:00 -14°C° 0 mm 1 mps 619 mmHg 68%
    06:00 -16°C° 0 mm 2 mps 619 mmHg 67%
    07:00 -14°C° 0 mm 2 mps 620 mmHg 64%
    08:00 -12°C° 0 mm 2 mps 620 mmHg 62%
    09:00 -8°C° 0 mm 2 mps 621 mmHg 58%
    10:00 -8°C° 0 mm 3 mps 621 mmHg 57%
    11:00 -7°C° 0 mm 3 mps 620 mmHg 56%
    12:00 -5°C° 0 mm 3 mps 620 mmHg 54%
    13:00 -5°C° 0 mm 3 mps 620 mmHg 56%
    14:00 -6°C° 0 mm 3 mps 619 mmHg 57%
    15:00 -6°C° 0 mm 3 mps 619 mmHg 58%
    16:00 -6°C° 0 mm 2 mps 619 mmHg 59%
    17:00 -7°C° 0 mm 2 mps 618 mmHg 60%
    18:00 -9°C° 0 mm 2 mps 618 mmHg 61%
    19:00 -9°C° 0 mm 2 mps 618 mmHg 59%
    20:00 -9°C° 0 mm 2 mps 618 mmHg 57%
    21:00 -9°C° 0 mm 2 mps 617 mmHg 56%
    22:00 -9°C° 0 mm 2 mps 617 mmHg 55%
    23:00 -10°C° 0 mm 2 mps 617 mmHg 55%

    Tomorrow, 10 December, Saturday

    Time Temperature Precipitation Wind Pressure Humidity
    00:00 -10°C° 0 mm 2 mps 617 mmHg 55%
    01:00 -10°C° 0 mm 2 mps 617 mmHg 55%
    02:00 -10°C° 0 mm 2 mps 617 mmHg 55%
    03:00 -10°C° 0 mm 2 mps 617 mmHg 55%
    04:00 -9°C° 0 mm 2 mps 617 mmHg 56%
    05:00 -9°C° 0 mm 2 mps 617 mmHg 57%
    06:00 -9°C° 0 mm 2 mps 617 mmHg 58%
    07:00 -7°C° 0 mm 2 mps 617 mmHg 57%
    08:00 -6°C° 0 mm 2 mps 618 mmHg 57%
    09:00 -4°C° 0 mm 2 mps 618 mmHg 57%
    10:00 -3°C° 0 mm 2 mps 618 mmHg 56%
    11:00 -2°C° 0 mm 2 mps 618 mmHg 55%
    12:00 0°C° 0 mm 3 mps 618 mmHg 53%
    13:00 +1°C° 0 mm 2 mps 617 mmHg 55%
    14:00 +1°C° 0 mm 2 mps 617 mmHg 58%
    15:00 -1°C° 0 mm 2 mps 616 mmHg 60%
    16:00 -2°C° 0 mm 2 mps 616 mmHg 61%
    17:00 -3°C° 0 mm 2 mps 616 mmHg 63%
    18:00 -4°C° 0 mm 2 mps 616 mmHg 65%
    19:00 -4°C° 0.2 mm 2 mps 616 mmHg 67%
    20:00 -4°C° 0.2 mm 2 mps 616 mmHg 70%
    21:00 -4°C° 0.2 mm 2 mps 616 mmHg 72%
    22:00 -4°C° 0.5 mm 2 mps 616 mmHg 77%
    23:00 -4°C° 0.5 mm 2 mps 617 mmHg 82%

    Day after tomorrow, 11 December, Sunday

    Time Temperature Precipitation Wind Pressure Humidity
    00:00 -4°C° 0.5 mm 2 mps 617 mmHg 87%
    01:00 -5°C° 0.2 mm 2 mps 617 mmHg 88%
    02:00 -5°C° 0.2 mm 2 mps 617 mmHg 89%
    03:00 -6°C° 0.2 mm 2 mps 617 mmHg 90%
    04:00 -6°C° 0 mm 2 mps 617 mmHg 90%
    05:00 -6°C° 0 mm 2 mps 617 mmHg 90%
    06:00 -7°C° 0 mm 2 mps 617 mmHg 90%
    07:00 -6°C° 0 mm 2 mps 617 mmHg 87%
    08:00 -5°C° 0 mm 2 mps 618 mmHg 84%
    09:00 -4°C° 0 mm 2 mps 619 mmHg 81%
    10:00 -3°C° 0 mm 2 mps 619 mmHg 77%
    11:00 -2°C° 0 mm 2 mps 619 mmHg 74%
    12:00 -1°C° 0 mm 3 mps 619 mmHg 71%
    13:00 -1°C° 0 mm 2 mps 618 mmHg 71%
    14:00 -1°C° 0 mm 2 mps 618 mmHg 71%
    15:00 -2°C° 0 mm 2 mps 618 mmHg 71%
    16:00 -4°C° 0 mm 2 mps 617 mmHg 74%
    17:00 -6°C° 0 mm 2 mps 617 mmHg 77%
    18:00 -8°C° 0 mm 2 mps 616 mmHg 80%
    19:00 -8°C° 0 mm 2 mps 617 mmHg 78%
    20:00 -8°C° 0 mm 2 mps 617 mmHg 77%
    21:00 -8°C° 0 mm 2 mps 617 mmHg 75%
    22:00 -8°C° 0 mm 2 mps 617 mmHg 75%
    23:00 -8°C° 0 mm 2 mps 617 mmHg 74%

    12 December, Monday

    Time Temperature Precipitation Wind Pressure Humidity
    00:00 -7°C° 0 mm 2 mps 618 mmHg 74%
    01:00 -7°C° 0 mm 2 mps 618 mmHg 74%
    02:00 -7°C° 0 mm 2 mps 618 mmHg 74%
    03:00 -7°C° 0 mm 2 mps 617 mmHg 74%
    04:00 -7°C° 0 mm 2 mps 617 mmHg 74%
    05:00 -7°C° 0 mm 2 mps 617 mmHg 74%
    06:00 -7°C° 0 mm 2 mps 617 mmHg 74%
    07:00 -6°C° 0 mm 2 mps 618 mmHg 72%
    08:00 -4°C° 0 mm 2 mps 619 mmHg 69%
    09:00 -2°C° 0 mm 2 mps 620 mmHg 67%
    10:00 -1°C° 0 mm 2 mps 620 mmHg 66%
    11:00 +1°C° 0 mm 2 mps 620 mmHg 65%
    12:00 +3°C° 0 mm 2 mps 620 mmHg 64%
    13:00 +3°C° 0 mm 2 mps 619 mmHg 64%
    14:00 +2°C° 0 mm 2 mps 618 mmHg 64%
    15:00 +2°C° 0 mm 2 mps 618 mmHg 64%
    16:00 +1°C° 0 mm 2 mps 617 mmHg 65%
    17:00 -2°C° 0 mm 2 mps 617 mmHg 65%
    18:00 -4°C° 0 mm 2 mps 616 mmHg 65%
    19:00 -4°C° 0 mm 2 mps 616 mmHg 63%
    20:00 -4°C° 0 mm 2 mps 616 mmHg 61%
    21:00 -4°C° 0 mm 2 mps 616 mmHg 59%
    22:00 -4°C° 0 mm 2 mps 616 mmHg 59%
    23:00 -4°C° 0 mm 2 mps 616 mmHg 58%

    13 December, Tuesday

    Time Temperature Precipitation Wind Pressure Humidity
    00:00 -4°C° 0 mm 2 mps 616 mmHg 58%
    01:00 -4°C° 0 mm 2 mps 616 mmHg 59%
    02:00 -3°C° 0 mm 2 mps 616 mmHg 60%
    03:00 -3°C° 0 mm 2 mps 616 mmHg 62%
    04:00 -3°C° 0 mm 2 mps 616 mmHg 64%
    05:00 -3°C° 0 mm 2 mps 616 mmHg 66%
    06:00 -4°C° 0 mm 2 mps 616 mmHg 69%
    07:00 -3°C° 0 mm 2 mps 616 mmHg 68%
    08:00 -2°C° 0 mm 2 mps 616 mmHg 67%
    09:00 -1°C° 0 mm 3 mps 617 mmHg 66%
    10:00 0°C° 0 mm 3 mps 617 mmHg 65%
    11:00 +1°C° 0 mm 3 mps 616 mmHg 65%
    12:00 +2°C° 0 mm 3 mps 616 mmHg 64%
    13:00 +2°C° 0 mm 3 mps 616 mmHg 65%
    14:00 +2°C° 0 mm 3 mps 616 mmHg 65%
    15:00 +2°C° 0 mm 3 mps 615 mmHg 66%
    16:00 +1°C° 0 mm 2 mps 615 mmHg 67%
    17:00 -1°C° 0 mm 2 mps 615 mmHg 69%
    18:00 -3°C° 0 mm 2 mps 614 mmHg 71%
    19:00 -3°C° 0 mm 2 mps 615 mmHg 72%
    20:00 -3°C° 0 mm 2 mps 615 mmHg 72%
    21:00 -3°C° 0 mm 2 mps 615 mmHg 72%
    22:00 -3°C° 0 mm 2 mps 615 mmHg 74%
    23:00 -3°C° 0 mm 2 mps 614 mmHg 75%

    14 December, Wednesday

    Time Temperature Precipitation Wind Pressure Humidity
    00:00 -3°C° 0 mm 2 mps 614 mmHg 77%
    01:00 -3°C° 0 mm 2 mps 614 mmHg 78%
    02:00 -3°C° 0 mm 2 mps 614 mmHg 78%
    03:00 -3°C° 0 mm 2 mps 614 mmHg 79%
    04:00 -4°C° 0 mm 2 mps 614 mmHg 79%
    05:00 -4°C° 0 mm 2 mps 614 mmHg 80%
    06:00 -4°C° 0 mm 2 mps 614 mmHg 80%
    07:00 -3°C° 0 mm 2 mps 615 mmHg 78%
    08:00 -2°C° 0 mm 2 mps 615 mmHg 75%
    09:00 -1°C° 0 mm 2 mps 616 mmHg 73%
    10:00 +1°C° 0.1 mm 2 mps 616 mmHg 71%
    11:00 +1°C° 0.1 mm 2 mps 615 mmHg 69%
    12:00 +2°C° 0.1 mm 2 mps 615 mmHg 67%
    13:00 +2°C° 0.4 mm 2 mps 615 mmHg 70%
    14:00 +1°C° 0.4 mm 2 mps 615 mmHg 72%
    15:00 +1°C° 0.4 mm 2 mps 614 mmHg 75%
    16:00 -1°C° 0.4 mm 2 mps 614 mmHg 78%
    17:00 -1°C° 0.4 mm 2 mps 614 mmHg 81%
    18:00 -2°C° 0.4 mm 2 mps 615 mmHg 84%
    19:00 -2°C° 0.4 mm 2 mps 615 mmHg 85%
    20:00 -2°C° 0.4 mm 2 mps 614 mmHg 87%
    21:00 0°C° 0.4 mm 1 mps 614 mmHg 88%
    22:00 0°C° 0.6 mm 1 mps 614 mmHg 89%
    23:00 -1°C° 0.6 mm 1 mps 614 mmHg 90%
    Show more